RYR442 EGSS-LFPG

Flight info

Callsign RYR442
Flight time 0h 45m
Altitude 25000
Route DET2D DET M604 LYD UM189 WAFFU UM605 BIBAX BIBAX9E
Aircraft B738/M-V/N

Departure

Time 2026-05-07 21:01
Airport London Stansted Airport (EGSS)

Arrival

Time 2026-05-07 21:46
Airport Charles de Gaulle International Airport (LFPG)
Time Latitude Longitude Altitude Speed Heading
2026-05-07 20:37 51.88855 0.25362 333 ft 0 kts 43°
2026-05-07 20:49 51.88852 0.25358 339 ft 1 kts 43°
2026-05-07 20:49 51.88848 0.25351 339 ft 1 kts 43°
2026-05-07 20:49 51.88842 0.25342 334 ft 1 kts 43°
2026-05-07 20:49 51.88834 0.25331 335 ft 1 kts 43°
2026-05-07 20:50 51.88826 0.25319 335 ft 1 kts 43°
2026-05-07 20:50 51.88818 0.25308 333 ft 1 kts 19°
2026-05-07 20:50 51.88808 0.25306 332 ft 1 kts 344°
2026-05-07 20:50 51.88803 0.25308 331 ft 0 kts 314°
2026-05-07 20:54 51.88810 0.25296 334 ft 3 kts 314°
2026-05-07 20:54 51.88834 0.25256 333 ft 8 kts 314°
2026-05-07 20:54 51.88881 0.25175 337 ft 12 kts 311°
2026-05-07 20:54 51.88940 0.25075 336 ft 7 kts 313°
2026-05-07 20:55 51.88966 0.25024 350 ft 5 kts 304°
2026-05-07 20:55 51.88972 0.24976 351 ft 4 kts 259°
2026-05-07 20:55 51.88938 0.24919 344 ft 12 kts 222°
2026-05-07 20:55 51.88852 0.24791 346 ft 22 kts 222°
2026-05-07 20:56 51.88722 0.24595 347 ft 29 kts 223°
2026-05-07 20:56 51.88562 0.24357 344 ft 31 kts 223°
2026-05-07 20:56 51.88401 0.24115 346 ft 32 kts 223°
2026-05-07 20:56 51.88237 0.23868 336 ft 33 kts 223°
2026-05-07 20:57 51.88071 0.23619 334 ft 33 kts 223°
2026-05-07 20:57 51.87901 0.23370 335 ft 33 kts 222°
2026-05-07 20:57 51.87753 0.23141 333 ft 21 kts 226°
2026-05-07 20:57 51.87747 0.23005 335 ft 9 kts 307°
2026-05-07 20:58 51.87787 0.22922 337 ft 5 kts 285°
2026-05-07 20:58 51.87781 0.22890 336 ft 2 kts 236°
2026-05-07 20:58 51.87745 0.22833 335 ft 13 kts 221°
2026-05-07 20:58 51.87654 0.22697 336 ft 23 kts 223°
2026-05-07 20:59 51.87524 0.22498 333 ft 18 kts 232°
2026-05-07 20:59 51.87530 0.22410 331 ft 8 kts 308°
2026-05-07 20:59 51.87553 0.22367 330 ft 0 kts 312°
2026-05-07 20:59 51.87576 0.22330 328 ft 8 kts 320°
2026-05-07 21:00 51.87638 0.22270 328 ft 14 kts 350°
2026-05-07 21:00 51.87734 0.22329 333 ft 17 kts 43°
2026-05-07 21:00 51.87983 0.22704 335 ft 90 kts 43°
2026-05-07 21:00 51.88625 0.23663 338 ft 156 kts 42°
2026-05-07 21:01 51.89546 0.25029 501 ft 198 kts 44°
2026-05-07 21:01 51.90580 0.26570 1437 ft 194 kts 45°
2026-05-07 21:01 51.91351 0.28168 2351 ft 177 kts 68°
2026-05-07 21:01 51.91811 0.30147 2410 ft 194 kts 85°
2026-05-07 21:02 51.91427 0.32120 2782 ft 185 kts 136°
2026-05-07 21:02 51.90716 0.32811 3082 ft 179 kts 160°
2026-05-07 21:02 51.89526 0.33352 3529 ft 178 kts 174°
2026-05-07 21:02 51.88273 0.33270 3891 ft 185 kts 193°
2026-05-07 21:03 51.87086 0.32409 4237 ft 191 kts 214°
2026-05-07 21:03 51.85954 0.31251 4601 ft 195 kts 209°
2026-05-07 21:03 51.84725 0.30237 4962 ft 201 kts 205°
2026-05-07 21:03 51.83435 0.29280 5321 ft 206 kts 205°
2026-05-07 21:04 51.82111 0.28297 5689 ft 210 kts 205°
2026-05-07 21:04 51.80773 0.27290 6064 ft 214 kts 205°
2026-05-07 21:04 51.79420 0.26269 6455 ft 215 kts 205°
2026-05-07 21:04 51.78058 0.25244 6828 ft 216 kts 205°
2026-05-07 21:05 51.76655 0.24509 7189 ft 216 kts 181°
2026-05-07 21:05 51.75202 0.25056 7578 ft 217 kts 156°
2026-05-07 21:05 51.73783 0.26176 7881 ft 239 kts 154°
2026-05-07 21:05 51.72228 0.27458 8220 ft 261 kts 154°
2026-05-07 21:06 51.70544 0.28809 8579 ft 276 kts 155°
2026-05-07 21:06 51.68808 0.30181 9012 ft 280 kts 155°
2026-05-07 21:06 51.67045 0.31575 9440 ft 283 kts 155°
2026-05-07 21:06 51.65268 0.32967 9878 ft 285 kts 155°
2026-05-07 21:07 51.63476 0.34363 10285 ft 287 kts 155°
2026-05-07 21:07 51.61699 0.35752 10680 ft 288 kts 155°
2026-05-07 21:07 51.59859 0.37188 11093 ft 302 kts 155°
2026-05-07 21:07 51.57919 0.38701 11520 ft 317 kts 155°
2026-05-07 21:08 51.55887 0.40284 11955 ft 331 kts 155°
2026-05-07 21:08 51.53772 0.41932 12395 ft 345 kts 155°
2026-05-07 21:08 51.51579 0.43639 12840 ft 352 kts 155°
2026-05-07 21:08 51.49366 0.45359 13281 ft 355 kts 155°
2026-05-07 21:09 51.47125 0.47072 13723 ft 357 kts 156°
2026-05-07 21:09 51.44871 0.48768 14127 ft 359 kts 156°
2026-05-07 21:09 51.42601 0.50486 14514 ft 361 kts 156°
2026-05-07 21:09 51.40323 0.52220 14907 ft 364 kts 156°
2026-05-07 21:10 51.38028 0.53963 15305 ft 366 kts 156°
2026-05-07 21:10 51.35750 0.55686 15703 ft 368 kts 156°
2026-05-07 21:10 51.33401 0.57459 16111 ft 370 kts 156°
2026-05-07 21:10 51.31098 0.59335 16345 ft 374 kts 148°
2026-05-07 21:11 51.29188 0.62099 16769 ft 380 kts 133°
2026-05-07 21:11 51.27497 0.65368 17196 ft 383 kts 130°
2026-05-07 21:11 51.24156 0.72095 18091 ft 389 kts 131°
2026-05-07 21:12 51.22437 0.75441 18507 ft 391 kts 131°
2026-05-07 21:12 51.20705 0.78816 18880 ft 394 kts 131°
2026-05-07 21:12 51.18971 0.82227 18985 ft 396 kts 131°
2026-05-07 21:12 51.17247 0.85627 19002 ft 394 kts 131°
2026-05-07 21:13 51.15514 0.89017 19024 ft 394 kts 131°
2026-05-07 21:13 51.13781 0.92394 19039 ft 394 kts 131°
2026-05-07 21:13 51.12048 0.95775 19093 ft 394 kts 131°
2026-05-07 21:13 51.10308 0.99172 19094 ft 396 kts 131°
2026-05-07 21:14 51.08569 1.02560 19093 ft 395 kts 131°
2026-05-07 21:14 51.06801 1.05905 19092 ft 393 kts 137°
2026-05-07 21:14 51.04540 1.08236 19116 ft 388 kts 162°
2026-05-07 21:14 51.01907 1.08858 19117 ft 382 kts 185°
2026-05-07 21:15 50.99326 1.08181 19116 ft 380 kts 195°
2026-05-07 21:15 50.96762 1.07132 19110 ft 380 kts 196°
2026-05-07 21:15 50.94187 1.06160 19114 ft 381 kts 193°
2026-05-07 21:15 50.91558 1.05577 19112 ft 382 kts 185°
2026-05-07 21:16 50.88890 1.05492 19109 ft 383 kts 181°
2026-05-07 21:16 50.86223 1.05574 19102 ft 383 kts 181°
2026-05-07 21:16 50.83559 1.05484 19103 ft 383 kts 185°
2026-05-07 21:16 50.80901 1.05225 19104 ft 383 kts 185°
2026-05-07 21:17 50.78240 1.05015 19103 ft 383 kts 184°
2026-05-07 21:17 50.75575 1.04894 19100 ft 383 kts 183°
2026-05-07 21:17 50.72914 1.04767 19100 ft 383 kts 184°
2026-05-07 21:17 50.70249 1.04597 19098 ft 383 kts 184°
2026-05-07 21:18 50.67586 1.04421 19092 ft 383 kts 184°
2026-05-07 21:18 50.64925 1.04265 19091 ft 383 kts 184°
2026-05-07 21:18 50.62263 1.04116 19082 ft 383 kts 184°
2026-05-07 21:18 50.59598 1.03959 19083 ft 383 kts 184°
2026-05-07 21:19 50.56935 1.03798 19081 ft 383 kts 184°
2026-05-07 21:19 50.54265 1.03639 19080 ft 383 kts 184°
2026-05-07 21:19 50.51634 1.03485 19081 ft 383 kts 184°
2026-05-07 21:19 50.48960 1.03329 19083 ft 383 kts 184°
2026-05-07 21:20 50.46296 1.03171 19085 ft 390 kts 184°
2026-05-07 21:20 50.43490 1.03002 19085 ft 417 kts 184°
2026-05-07 21:20 50.40506 1.02824 19090 ft 442 kts 184°
2026-05-07 21:20 50.37408 1.02647 19085 ft 437 kts 184°
2026-05-07 21:21 50.34461 1.02484 19077 ft 411 kts 184°
2026-05-07 21:21 50.31682 1.02321 19065 ft 387 kts 184°
2026-05-07 21:21 50.29066 1.02164 19064 ft 366 kts 184°
2026-05-07 21:21 50.26534 1.02013 19063 ft 362 kts 184°
2026-05-07 21:22 50.24025 1.01866 19065 ft 360 kts 184°
2026-05-07 21:22 50.21521 1.01721 19062 ft 359 kts 184°
2026-05-07 21:22 50.19025 1.01576 19063 ft 358 kts 184°
2026-05-07 21:22 50.16568 1.01433 19060 ft 358 kts 184°
2026-05-07 21:23 50.14081 1.01288 19069 ft 358 kts 184°
2026-05-07 21:23 50.11591 1.01144 19067 ft 358 kts 184°
2026-05-07 21:23 50.09102 1.01000 19065 ft 358 kts 184°
2026-05-07 21:23 50.06617 1.00859 19068 ft 358 kts 182°
2026-05-07 21:24 50.04159 1.01516 19083 ft 363 kts 162°
2026-05-07 21:24 50.01874 1.03210 19078 ft 365 kts 152°
2026-05-07 21:24 49.99687 1.05247 19082 ft 366 kts 151°
2026-05-07 21:24 49.97476 1.07195 19082 ft 365 kts 155°
2026-05-07 21:25 49.95178 1.08858 19068 ft 364 kts 159°
2026-05-07 21:25 49.92862 1.10461 19073 ft 364 kts 157°
2026-05-07 21:25 49.90583 1.12177 19076 ft 365 kts 156°
2026-05-07 21:25 49.88313 1.13941 19072 ft 365 kts 156°
2026-05-07 21:26 49.86052 1.15644 19077 ft 364 kts 157°
2026-05-07 21:26 49.83764 1.17330 19079 ft 364 kts 157°
2026-05-07 21:26 49.81473 1.19034 19078 ft 365 kts 156°
2026-05-07 21:26 49.79187 1.20751 19078 ft 365 kts 156°
2026-05-07 21:27 49.76903 1.22461 19075 ft 365 kts 156°
2026-05-07 21:27 49.74615 1.24162 19077 ft 365 kts 156°
2026-05-07 21:27 49.72325 1.25864 19069 ft 364 kts 157°
2026-05-07 21:27 49.70041 1.27563 19079 ft 364 kts 156°
2026-05-07 21:28 49.67763 1.29257 19073 ft 364 kts 156°
2026-05-07 21:28 49.65483 1.30948 19071 ft 363 kts 157°
2026-05-07 21:28 49.63231 1.32617 19070 ft 363 kts 157°
2026-05-07 21:28 49.60951 1.34306 19080 ft 363 kts 157°
2026-05-07 21:29 49.58661 1.36000 19064 ft 366 kts 156°
2026-05-07 21:29 49.56361 1.37698 18879 ft 367 kts 156°
2026-05-07 21:29 49.54067 1.39393 18540 ft 365 kts 156°
2026-05-07 21:29 49.51790 1.41073 18246 ft 363 kts 156°
2026-05-07 21:30 49.49510 1.42751 17742 ft 361 kts 157°
2026-05-07 21:30 49.47242 1.44420 17060 ft 361 kts 156°
2026-05-07 21:30 49.44968 1.46091 16307 ft 363 kts 156°
2026-05-07 21:30 49.42686 1.47767 15579 ft 364 kts 156°
2026-05-07 21:31 49.40400 1.49445 14876 ft 364 kts 156°
2026-05-07 21:31 49.38110 1.51123 14179 ft 364 kts 156°
2026-05-07 21:31 49.35822 1.52798 13449 ft 364 kts 156°
2026-05-07 21:31 49.33548 1.54461 12829 ft 359 kts 156°
2026-05-07 21:32 49.31308 1.56102 12302 ft 353 kts 154°
2026-05-07 21:32 49.29429 1.58395 12011 ft 345 kts 128°
2026-05-07 21:32 49.28471 1.61699 11742 ft 341 kts 100°
2026-05-07 21:32 49.28502 1.65269 11505 ft 339 kts 82°
2026-05-07 21:33 49.28903 1.68779 11296 ft 312 kts 79°
2026-05-07 21:33 49.29247 1.71946 11108 ft 305 kts 83°
2026-05-07 21:33 49.29231 1.75166 10912 ft 301 kts 105°
2026-05-07 21:33 49.28225 1.77905 10731 ft 297 kts 138°
2026-05-07 21:34 49.26457 1.79437 10422 ft 290 kts 167°
2026-05-07 21:34 49.24486 1.79990 10094 ft 288 kts 174°
2026-05-07 21:34 49.22508 1.80482 9743 ft 287 kts 170°
2026-05-07 21:34 49.20609 1.81325 9380 ft 288 kts 160°
2026-05-07 21:35 49.18796 1.82613 9009 ft 287 kts 154°
2026-05-07 21:35 49.17011 1.83968 8653 ft 286 kts 156°
2026-05-07 21:35 49.15200 1.85196 8290 ft 284 kts 158°
2026-05-07 21:35 49.13444 1.86331 7881 ft 262 kts 158°
2026-05-07 21:36 49.11837 1.87413 7497 ft 242 kts 154°
2026-05-07 21:36 49.10435 1.88559 7356 ft 216 kts 150°
2026-05-07 21:36 49.09180 1.89773 7158 ft 209 kts 145°
2026-05-07 21:36 49.08025 1.91082 6883 ft 207 kts 141°
2026-05-07 21:37 49.06934 1.92511 6614 ft 204 kts 136°
2026-05-07 21:37 49.05923 1.94041 6313 ft 203 kts 133°
2026-05-07 21:37 49.04991 1.95664 6036 ft 202 kts 129°
2026-05-07 21:37 49.04152 1.97349 5876 ft 203 kts 124°
2026-05-07 21:38 49.03371 1.99168 5773 ft 200 kts 121°
2026-05-07 21:38 49.02691 2.01022 5686 ft 208 kts 116°
2026-05-07 21:38 49.02078 2.03014 5578 ft 206 kts 112°
2026-05-07 21:38 49.01557 2.05076 5471 ft 208 kts 108°
2026-05-07 21:39 49.01139 2.07172 5355 ft 207 kts 104°
2026-05-07 21:39 49.00819 2.09325 5223 ft 211 kts 100°
2026-05-07 21:39 49.00599 2.11525 5121 ft 208 kts 96°
2026-05-07 21:39 49.00485 2.13740 4988 ft 209 kts 92°
2026-05-07 21:40 49.00475 2.15870 4820 ft 194 kts 88°
2026-05-07 21:40 49.00557 2.17913 4649 ft 192 kts 84°
2026-05-07 21:40 49.00675 2.19885 4477 ft 181 kts 85°
2026-05-07 21:40 49.00780 2.21798 4329 ft 181 kts 85°
2026-05-07 21:41 49.00885 2.23693 4170 ft 179 kts 85°
2026-05-07 21:41 49.00990 2.25572 4016 ft 178 kts 85°
2026-05-07 21:41 49.01096 2.27450 3874 ft 177 kts 85°
2026-05-07 21:41 49.01200 2.29296 3709 ft 178 kts 85°
2026-05-07 21:42 49.01304 2.31155 3559 ft 175 kts 85°
2026-05-07 21:42 49.01405 2.32976 3407 ft 170 kts 86°
2026-05-07 21:42 49.01506 2.34786 3191 ft 168 kts 85°
2026-05-07 21:42 49.01597 2.36428 2894 ft 146 kts 86°
2026-05-07 21:43 49.01680 2.37929 2586 ft 140 kts 86°
2026-05-07 21:43 49.01760 2.39386 2280 ft 137 kts 85°
2026-05-07 21:43 49.01839 2.40821 2040 ft 136 kts 86°
2026-05-07 21:43 49.01917 2.42247 1829 ft 135 kts 86°
2026-05-07 21:44 49.01998 2.43668 1584 ft 134 kts 85°
2026-05-07 21:44 49.02073 2.45078 1438 ft 135 kts 86°
2026-05-07 21:44 49.02147 2.46507 1294 ft 135 kts 85°
2026-05-07 21:44 49.02227 2.47916 1072 ft 131 kts 84°
2026-05-07 21:45 49.02301 2.49299 821 ft 132 kts 84°
2026-05-07 21:45 49.02373 2.50660 652 ft 126 kts 83°
2026-05-07 21:45 49.02446 2.51990 458 ft 125 kts 84°
2026-05-07 21:45 49.02516 2.53294 363 ft 120 kts 84°
2026-05-07 21:46 49.02575 2.54392 355 ft 74 kts 85°
2026-05-07 21:46 49.02602 2.54893 359 ft 25 kts 85°
2026-05-07 21:46 49.02606 2.55023 361 ft 11 kts 91°
2026-05-07 21:46 49.02606 2.55064 361 ft 6 kts 91°
2026-05-07 21:47 49.02594 2.55171 361 ft 14 kts 102°
2026-05-07 21:47 49.02549 2.55361 360 ft 23 kts 114°
2026-05-07 21:47 49.02478 2.55589 362 ft 21 kts 113°